Regional & State Weather Roundups


094 
ASUS43 KIWX 251110
RWRIWX
KIWX WEATHER ROUNDUP
NATIONAL WEATHER SERVICE NORTHERN INDIANA
600 AM EST SUN FEB 25 2018
NOTE: "FAIR" INDICATES FEW OR NO CLOUDS BELOW 12,000 FEET WITH NO
SIGNIFICANT WEATHER AND/OR OBSTRUCTIONS TO VISIBILITY. 
* THESE STATIONS ARE NOT UNDER NWS QUALITY CONTROL. THEY ALSO MAY NOT 
  REPORT WEATHER SUCH AS PRECIPITATION OR FOG. 
INZ001>027-251200-
NORTHERN INDIANA
  
CITY           SKY/WX    TMP DP  RH WIND       PRES   REMARKS
GARY*          CLOUDY    36  28  75 W32G45    29.75R                  
VALPARAISO     CLOUDY    36  29  75 W17       29.77R                  
LAPORTE*       CLOUDY    35  28  78 W16G35    29.75R WCI  25          
SOUTH BEND     CLOUDY    36  29  75 W22G29    29.72R                  
GOSHEN         CLOUDY    37  31  78 W17G29    29.72R                  
MONTICELLO*    CLOUDY    37  30  78 W24G32    29.82R                  
LOGANSPORT*    CLOUDY    36  32  87 W23G38    29.83R                  
ROCHESTER*     CLOUDY    39  34  81 W14G25    29.78R                  
WARSAW*        CLOUDY    36  32  87 E16G24    29.74R                  
AUBURN*        CLOUDY    41  34  75 W21G30    29.72R                  
FORT WAYNE     CLOUDY    42  35  76 W32G44    29.74R                  
HUNTINGTON*    CLOUDY    40  35  81 W23G31    29.77R                  
PERU/GRISSOM   CLOUDY    38  36  94 SW23G30   29.80R                  
MARION*        CLOUDY    40  36  84 W24       29.82R                  
$$
INZ028>050-251200-
CENTRAL INDIANA
  
CITY           SKY/WX    TMP DP  RH WIND       PRES   REMARKS
LAFAYETTE      CLOUDY    37  30  75 W16G29    29.86R                  
KOKOMO*        CLOUDY    39  33  79 W29       29.83R                  
MUNCIE*        CLOUDY    45  37  73 W20G35    29.82R                  
INDIANAPOLIS   MOCLDY    40  34  79 W18       29.88R                  
$$
MIZ043>046-050>051-056>058-064>065-071>073-077>080-251200-
SOUTHWEST LOWER MICHIGAN
  
CITY           SKY/WX    TMP DP  RH WIND       PRES   REMARKS
BATTLE CREEK   CLOUDY     4   1  88 W23G35    29.62R WCI -18          
BENTON HARBOR  CLOUDY    36  28  73 W24G38    29.69R                  
COLDWATER*     CLOUDY    41  37  88 W18G32    29.65R                  
HILLSDALE*     CLOUDY    43  36  75 W23G39    29.61R                  
HOLLAND        CLOUDY    36  29  75 W24G37    29.62R                  
GRAND RAPIDS   CLOUDY    37  35  92 W26G47    29.58R                  
KALAMAZOO      CLOUDY    38  32  79 W17G30    29.65R                  
STURGIS*       CLOUDY    40  35  81 W21G31    29.67R                  
THREE RIVERS*  MOCLDY    38  32  77 W13G26    29.68R                  
$$
OHZ001>008-015>018-024>025-251200-
NORTHWEST OHIO
  
CITY           SKY/WX    TMP DP  RH WIND       PRES   REMARKS
WAUSEON*       CLOUDY    48  48 100 W31G44    29.62R                  
DEFIANCE       MOCLDY    45  38  76 W18G31    29.69R                  
FINDLAY        MOCLDY    49  41  74 W25G36    29.68R                  
TOLEDO EXPRESS FAIR      48  43  82 SW30G41   29.62R                  
TOLEDO METCALF   N/A     51  43  74 W31G40    29.62R                  
LIMA           MOCLDY    47  42  83 W32G41    29.73R                  
$$
AND FOR LAKE MICHIGAN COASTAL AND OPEN LAKE BUOY OBSERVATIONS
  
STATION/POSITION TEMP    WIND        PRES    VSBY  WAVE
                 AIR SEA DIR/SP/G                  HT/PER
                 (F)     (DEG/KT/KT) (MB)    (MI)  (FT/S)
CALUMET HARBOR    35     240/ 14/ 20 1006.5R
MICHIGAN CITY     35     220/ 34/ 38   N/A
BURNS HARBOR      36     250/ 31/ 37 1007.5R
SAINT JOSEPH      35     230/ 27/ 33 1006.4
$$
&&